Flag for Australia Weather past 2 weeks in Traralgon, Victoria, Australia

Now
60 °F

Cool.


Feels Like: 60 °F
Forecast: 44 / 58 °F
Wind: 5 mph from Northeast

Location: Latrobe Valley Airport

Current Time: Aug 23, 2014 at 1:40:40 PM

Latest Report: Aug 23, 2014 at 12:00 PM


Visibility: N/A

Pressure: 30.37 "Hg

Humidity: 73%

Dew point: 52 °F

Location of TraralgonLocation

Historic Weather in Traralgon — Graph

°F

Traralgon temperature yesterday

Maximum temperature yesterday: 64 °F (at 3:00 PM)
Minimum temperature yesterday: 44 °F (at 12:00 AM)
Average temperature yesterday: 50 °F

Past Weeks' High & Low Weather Summary

 TemperatureHumidityPressure
High64 °F (Aug 22, 3:00 PM)100% (Aug 9, 9:00 AM)30.60 "Hg (Aug 9, 9:00 AM)
Low33 °F (Aug 9, 6:00 AM)49% (Aug 22, 3:00 PM)30.02 "Hg (Aug 17, 2:00 PM)
Average48 °F88%30.34 "Hg
* Reported Aug 8 12:00 Noon — Aug 23 12:00 Noon, Traralgon, Weather by CustomWeather, © 2014

Note: Actual official high and low records may vary slightly from our data, if they occured in-between our weather recording intervals... More about our weather records

Advertising

Traralgon weather history for previous 24 hours

 ConditionsComfort  
Time TempWeatherWind HumidityBarometerVisibility
12:00 PM
Aug 23
60 °FCool.5 mph73%30.37 "HgN/A
11:00 AM56 °FCool.3 mph97%30.40 "HgN/A
9:00 AM44 °FLow clouds.1 mph100%30.43 "Hg0 mi
8:00 AM43 °FQuite cool.No wind100%30.43 "HgN/A
6:00 AM43 °FLow clouds.No wind100%30.40 "Hg0 mi
5:00 AM44 °FQuite cool.No wind100%30.38 "HgN/A
3:00 AM44 °FLow clouds.No wind100%30.38 "Hg0 mi
2:00 AM45 °FCool.No wind100%30.39 "HgN/A
12:00 AM41 °FPassing clouds.No wind99%30.40 "HgN/A
11:00 PM
Aug 22
44 °FQuite cool.No wind99%30.40 "HgN/A
9:00 PM48 °FCool.No wind98%30.42 "HgN/A
8:00 PM49 °FCool.3 mph90%30.41 "HgN/A
6:00 PM55 °FCool.9 mph73%30.39 "HgN/A
5:00 PM59 °FCool.9 mph65%30.37 "HgN/A
3:00 PM64 °FMild.6 mph49%30.37 "HgN/A
2:00 PM63 °FMild.6 mph62%30.39 "HgN/A
Weather by CustomWeather, © 2014

See weather overviewHow to use our weather pages